COMPLETED DISPATCHED CALLS FOR SERVICE

Welcome to the Jacksonville Sheriff’s Office Completed Dispatched Calls for Service webpage. This page displays calls for service made to the Jacksonville Sheriff's Office that have recently been completed. The data on this page is refreshed automatically.

This information is not intended to be used as official crime data. This program does not provide information about all crimes, and excludes specific incidents such as sexual assaults and child abuse.

Disclaimer: The Jacksonville Sheriff's Office makes every effort to produce and publish current and accurate information. No warranties, expressed or implied, are provided for the data herein, its use, or its interpretation. The services provided are for informational purposes only and should not be relied on for any type of legal action.

Last refreshed 6/28 02:51:56

Incident # Dispatched Block Address Signal Call Description  
170628431507 6-28 02:34 6200 POWERS AVE 13 SUSPICIOUS PERSON
170628431504 6-28 02:30 3700 TOLEDO 13 SUSPICIOUS PERSON
170628431495 6-28 02:20 SIBBALD/SOUTEL 1050 TRAFFIC STOP
170628431484 6-28 02:14 LEM TURNER/SOUTEL 1050 TRAFFIC STOP
170628431480 6-28 02:12 11900 BEACH BLVD 1066 CANCEL
170628431477 6-28 02:08 BEACH BLVD AND S UNIVERSITY BLVD 1050 TRAFFIC STOP
170628431475 6-28 02:05 1100 S MC DUFF AVE 1050 TRAFFIC STOP
170628431471 6-28 02:02 3200 PHILLIPS HWY 1050 TRAFFIC STOP
170628431465 6-28 01:57 S SAN PABLO RD AND COURTNEY WOODS LN 1050 TRAFFIC STOP
170628431463 6-28 01:56 RIO GRANDE AVE AND N EDGEWOOD AVE 1050 TRAFFIC STOP
170628431460 6-28 01:54 PARK ST AND COPELAND ST 1050 TRAFFIC STOP
170628431459 6-28 01:51 W 28TH ST AND ALMEDA ST 1050 TRAFFIC STOP
170628431458 6-28 01:51 W 33RD ST AND N CANAL ST 1050 TRAFFIC STOP
170628431457 6-28 01:51 BEACH BLVD AND S UNIVERSITY BLVD 1050 TRAFFIC STOP
170628431454 6-28 01:50 N I95 EXPWY AND E I10 EXPWY 19 ANIMAL INVESTIGATION
170628431455 6-28 01:50 ATLANTIC BLVD AND E HAWAII DR 1050 TRAFFIC STOP
170628431452 6-28 01:48 30/AL 1050 TRAFFIC STOP
170628431450 6-28 01:47 W MONCRIEF RD AND SOUTEL DR 1050 TRAFFIC STOP
170628431448 6-28 01:46 2600 ROSSELLE ST 13 SUSPICIOUS PERSON
170628431446 6-28 01:44 700 LOCUST ST 13 SUSPICIOUS PERSON
170628431445 6-28 01:43 NILE DR AND SHENANDOAH AVE 1050 TRAFFIC STOP
170628431443 6-28 01:43 PLYMOUTH ST AND S ELLIS RD 13 SUSPICIOUS PERSON
170628431442 6-28 01:42 N EDGEWOOD AVE AND NEW KINGS RD 1050 TRAFFIC STOP
170628431437 6-28 01:39 STOCKTON ST AND MYRA ST 1050 TRAFFIC STOP
170628431435 6-28 01:38 POWERS AVE AND DAWN RD 1050 TRAFFIC STOP
170628431434 6-28 01:37 KING ST AND PARK ST 1050 TRAFFIC STOP
170628431433 6-28 01:36 W MONCRIEF RD AND RICHARDSON RD 1050 TRAFFIC STOP
170628431432 6-28 01:36 W EDGEWOOD AVE AND AVENUE B 13 SUSPICIOUS PERSON
170628431431 6-28 01:36 10800 HARTS RD 1050 TRAFFIC STOP
170628431430 6-28 01:35 2100 W BO PEEP DR 2 22 DOMESTIC DISTURBANCE
170628431429 6-28 01:32 HOGAN RD AND PARENTAL HOME RD 1050 TRAFFIC STOP
170628431420 6-28 01:31 E CHURCH ST AND N LIBERTY ST 6388 DISPUTE WITH ASSAULT
170628431428 6-28 01:30 AMAZON AVE AND NILE DR 13 SUSPICIOUS PERSON
170628431427 6-28 01:29 2400 MAYPORT RD 13 SUSPICIOUS PERSON
170628431425 6-28 01:28 STOCKTON ST AND PARK ST 1050 TRAFFIC STOP
170628431424 6-28 01:27 700 W 4TH ST 60 SUICIDE OR ATTEMPT
170628431419 6-28 01:23 MON/RAI 1050 TRAFFIC STOP
170628431344 6-28 01:22 2900 JUSTINA RD 22 DOMESTIC
170628431414 6-28 01:20 11500 DUNFORTH COVE DR 13 SUSPICIOUS PERSON
170628431406 6-28 01:17 3900 TOLEDO RD 22 DOMESTIC
170628431399 6-28 01:17 3900 TOLEDO RD 13 SUSPICIOUS PERSON
170628431409 6-28 01:12 2300 POST ST 13 SUSPICIOUS PERSON
170628431405 6-28 01:11 PLYMOUTH ST AND S ELLIS RD 13 SUSPICIOUS PERSON
170628431404 6-28 01:10 ROOSEVELT BLVD AND S EDGEWOOD AVE 1050 TRAFFIC STOP
170628431353 6-28 01:09 900 RUDDER RD 13 SUSPICIOUS PERSON
170628431402 6-28 01:09 AMAZON AVE AND NILE DR 13 SUSPICIOUS PERSON
170628431354 6-28 01:07 200 W 27TH ST 2 22 DOMESTIC DISTURBANCE
170628431372 6-28 01:06 5500 PLAYA WAY 2 63 DISPUTE IMPAIRED/INTOXICATED
170628431314 6-28 01:06 7500 S SANDHURST RD 22 DOMESTIC
170628431398 6-28 01:06 N MYRTLE AVE AND W 22ND ST 1050 TRAFFIC STOP
170628431397 6-28 01:05 MONUMENT RD AND REGENCY SQUARE BLVD 1050 TRAFFIC STOP
170628431395 6-28 01:05 S I95 EXPWY AND OLD ST AUGUSTINE RD 4 AUTO CRASH
170628431392 6-28 01:04 BEACH BLVD AND CORTEZ RD 4 AUTO CRASH
170628431396 6-28 01:04 2600 POST ST 1050 TRAFFIC STOP
170628431385 6-28 01:02 S MC DUFF AVE AND REMINGTON ST 64 NOISE COMPLAINT
170628431388 6-28 01:01 3500 RING LN 1050 TRAFFIC STOP
170628431366 6-28 01:01 8800 S PISCES CIR 19 ANIMAL INVESTIGATION
170628431386 6-28 00:59 N MYRTLE AVE AND W 5TH ST 1050 TRAFFIC STOP
170628431383 6-28 00:59 2300 EUDINE DR 8 MISSING PERSON
170628431382 6-28 00:58 3100 W EDGEWOOD AVE 1050 TRAFFIC STOP
170628431349 6-28 00:58 6800 LENOX AVE 27 MENTALLY ILL PERSON
170628431380 6-28 00:57 11200 HARTS RD 13 SUSPICIOUS PERSON
170628431378 6-28 00:57 WILSON BLVD AND GOODRICH RD 1050 TRAFFIC STOP
170628431373 6-28 00:56 12400 BISCAYNE BLVD 63 DISPUTE
170628431375 6-28 00:54 W 9TH ST AND W DURKEE DR 1050 TRAFFIC STOP
170628431374 6-28 00:54 1300 CASSAT AVE 1050 TRAFFIC STOP
170628431368 6-28 00:54 1600 LINDEN AVE 1066 CANCEL
170628431370 6-28 00:51 W 13TH ST AND N MYRTLE AVE 1050 TRAFFIC STOP
170628431369 6-28 00:51 12700 PHILIPS HWY 13 SUSPICIOUS PERSON
170628431365 6-28 00:50 CASSAT AVE AND SAN JUAN AVE 1050 TRAFFIC STOP
170628431332 6-28 00:48 1400 TRIPPER DR 64 NOISE COMPLAINT
170628431358 6-28 00:46 1700 W 26TH ST 1066 CANCEL
170628431361 6-28 00:46 1000 S EDGEWOOD AVE 63 DISPUTE
170628431362 6-28 00:46 W 5TH ST AND INDUSTRIAL BLVD 1050 TRAFFIC STOP
170628431359 6-28 00:45 BOULEVARD AND W 21ST ST 3 HIT AND RUN CRASH
170628431356 6-28 00:44 12000 ARBOR LAKE DR 20 PROWLER
170628431352 6-28 00:39 BLANDING BLVD AND WILSON BLVD 1050 TRAFFIC STOP
170628431351 6-28 00:39 W 32ND ST AND MONCRIEF RD 13 SUSPICIOUS PERSON
170628431350 6-28 00:39 EMERSON ST AND SPRING PARK RD 1050 TRAFFIC STOP
170628431347 6-28 00:37 NORMANDY BLVD AND LENOX AVE 1050 TRAFFIC STOP
170628431308 6-28 00:37 4800 ATLANTIC BLVD 63 DISPUTE
170628431346 6-28 00:37 1900 DECOTTES ST 1050 TRAFFIC STOP
170628431341 6-28 00:36 8400 BLANDING BLVD 63 DISPUTE
170628431334 6-28 00:31 3700 S ST JOHNS BLUFF RD 13 SUSPICIOUS PERSON
170628431292 6-28 00:31 1600 IONIA ST 2 63 DISPUTE IMPAIRED/INTOXICATED
170628431336 6-28 00:30 W 1ST ST AND TYLER ST 1050 TRAFFIC STOP
170628431335 6-28 00:29 S LANE AVE AND RAMONA BLVD 1050 TRAFFIC STOP
170628431326 6-28 00:28 8600 GRIFFIS RD 63 DISPUTE
170628431331 6-28 00:28 SR9B EXIT ETOWN RP AND ETOWN EXIT SR9B RP 1050 TRAFFIC STOP
170628431329 6-28 00:27 3000 W EDGEWOOD AVE 13 SUSPICIOUS PERSON
170628431324 6-28 00:25 1000 MELSON AVE 76 ASSIST OTHER AGENCY
170628431318 6-28 00:20 1400 W 32ND ST 76 ASSIST OTHER AGENCY
170627431265 6-28 00:18 13300 ATLANTIC BLVD 90 FIREWORKS
170628431313 6-28 00:18 W 13TH ST AND N MYRTLE AVE 1050 TRAFFIC STOP
170628431311 6-28 00:17 NORMANDY VILLAGE PKWY AND NORMANDY BLVD 13 SUSPICIOUS PERSON
170628431299 6-28 00:17 BRIGHTON BAY TRL AND KENSINGTON LAKES DR 0 13 ARMED SUSPICIOUS PERSON
170628431310 6-28 00:16 W MONCRIEF RD AND SOUTEL DR 1050 TRAFFIC STOP
170628431307 6-28 00:15 W 8TH ST AND FRANCIS ST 1050 TRAFFIC STOP
170628431287 6-28 00:14 2900 DIGNAN ST 20 PROWLER
170628431303 6-28 00:12 WYCOFF AVE AND ALPHA AVE 1050 TRAFFIC STOP
170628431301 6-28 00:10 5300 TESSA TER 60 SUICIDE OR ATTEMPT
170628431300 6-28 00:09 1000 S MC DUFF AVE 13 SUSPICIOUS PERSON
170628431295 6-28 00:06 3200 PHILIPS HWY 13 SUSPICIOUS PERSON
170628431288 6-28 00:05 9800 OLD BAYMEADOWS RD 23I ROBBERY INDIVIDUAL
170628431290 6-28 00:05 6100 CLEVELAND RD 13 SUSPICIOUS PERSON
170628431286 6-28 00:03 KING/GILMORE 13 SUSPICIOUS PERSON
170627431282 6-28 00:01 2300 PHILIPS HWY 63 DISPUTE
170628431284 6-28 00:00 PHILIPS HWY AND EMERSON ST 1050 TRAFFIC STOP
170628431283 6-28 00:00 APRIL/KINKAID 13 SUSPICIOUS PERSON
170627431271 6-27 23:58 7600 KONA AVE 1066 CANCEL
170627431281 6-27 23:58 CONNIE JEAN RD AND 103RD ST 1050 TRAFFIC STOP
170627431279 6-27 23:58 EMERSON ST AND SPRING PARK RD 1050 TRAFFIC STOP
170627431278 6-27 23:57 2100 POST 1050 TRAFFIC STOP
170627431275 6-27 23:57 SOUTHSIDE CONNECTOR BLVD AND S I295 EXPWY 4 AUTO CRASH
170627431277 6-27 23:56 W EDGEWOOD AVE AND LAKE PARK DR 1050 TRAFFIC STOP
170627431274 6-27 23:56 6200 LONGCHAMP DR 63 DISPUTE
170627431248 6-27 23:55 3200 JUSTINA RD 13 SUSPICIOUS PERSON
170627431268 6-27 23:53 5500 HARROLD AVE 27 MENTALLY ILL PERSON
170627431267 6-27 23:52 12700 LEM TURNER RD 64 NOISE COMPLAINT
170627431272 6-27 23:52 500 STOCKTON ST 60 SUICIDE OR ATTEMPT
170627431184 6-27 23:51 1900 PAINE AVE 64 NOISE COMPLAINT
170627431269 6-27 23:49 MONUMENT RD AND REGENCY SQUARE BLVD 1050 TRAFFIC STOP
170627431266 6-27 23:49 8700 S HAMMONDWOOD RD 64 NOISE COMPLAINT
170627431263 6-27 23:47 5800 ABELIA RD 33 DISCHARGING OF FIREARM
170627431235 6-27 23:46 6400 SAN JUAN AVE 8 MISSING PERSON
170627431261 6-27 23:45 CASSAT AVE AND POST ST 1050 TRAFFIC STOP
170627431249 6-27 23:42 1000 REIMAN ST 22 DOMESTIC
170627431207 6-27 23:40 N NEWNAN ST AND E ASHLEY ST 63 DISPUTE
170627431243 6-27 23:38 EATON AVE AND ACME ST 64 NOISE COMPLAINT
170627431226 6-27 23:38 7200 LEM TURNER RD 63 DISPUTE
170627431244 6-27 23:38 6900 DELISLE DR 13 SUSPICIOUS PERSON
170627431252 6-27 23:37 S I95 EXPWY AND GOLFAIR BLVD 1050 TRAFFIC STOP
170627431251 6-27 23:37 6800 ATLANTIC BLVD 1050 TRAFFIC STOP
170627431216 6-27 23:36 6800 S OLD MIDDLEBURG RD 4 AUTO CRASH
170627431231 6-27 23:35 SILENT BROOK TRL AND MASTIN COVE RD 2 63 DISPUTE IMPAIRED/INTOXICATED
170627431245 6-27 23:33 11400 N MARTIN LAKES DR 33 DISCHARGING OF FIREARM
170627431247 6-27 23:33 N MAIN ST AND S I295 EXPWY 1050 TRAFFIC STOP
170627431246 6-27 23:33 3100 PHILIPS HWY 13 SUSPICIOUS PERSON
170627431239 6-27 23:32 900 BERT RD 0 63 ARMED DISPUTE
170627431240 6-27 23:30 8600 GRIFFIS RD 63 DISPUTE
170627431238 6-27 23:28 DEERWOOD PARK BLVD AND SOUTHSIDE SERVICE RD 96 ASSIST MOTORIST
170627431237 6-27 23:28 2200 S CHAFFEE RD 1050 TRAFFIC STOP
170627431228 6-27 23:23 1600 DUNN AVE 1050 TRAFFIC STOP
170627431227 6-27 23:23 W 8TH ST AND WILCOX ST 1050 TRAFFIC STOP
170627431222 6-27 23:23 8200 CHERYL ANN LN 13 SUSPICIOUS PERSON
170627431210 6-27 23:22 100 KING ST 22 DOMESTIC
170627431212 6-27 23:22 5100 JOHNSON CREEK DR 19 ANIMAL INVESTIGATION
170627431218 6-27 23:21 1600 FOREST HILLS RD 13 SUSPICIOUS PERSON
170627431224 6-27 23:20 E I10 EXPWY AND N I295 EXPWY 13 SUSPICIOUS PERSON
170627431223 6-27 23:20 CYNTHIA ST AND STUART AVE 1050 TRAFFIC STOP
170627431220 6-27 23:19 2400 JOHNSON AVE 63 DISPUTE
170627431221 6-27 23:19 10300 ATLANTIC BLVD 21B BURGLARY BUSINESS
170627431214 6-27 23:17 PARK ST AND STONEWALL ST 64 NOISE COMPLAINT
170627431186 6-27 23:17 BERT RD AND BLACKARD RD 33 DISCHARGING OF FIREARM
170627431182 6-27 23:16 1000 FULLER LN 22 DOMESTIC
170627431213 6-27 23:15 5500 ROOSEVELT BLVD 1066 CANCEL
170627431211 6-27 23:14 1500 W 36TH ST 88 ASSAULT
170627431196 6-27 23:14 8400 BLANDING BLVD 2 63 DISPUTE IMPAIRED/INTOXICATED
170627431194 6-27 23:14 7000 N MAIN ST 88 ASSAULT
170627431209 6-27 23:13 4000 UNIVERSITY BLVD 13 SUSPICIOUS PERSON
170627431204 6-27 23:13 1000 S US 301 HWY 13 SUSPICIOUS PERSON
170627431153 6-27 23:12 400 E BAY ST 13 SUSPICIOUS PERSON
170627431203 6-27 23:12 6900 E LENOIR AVE 21C BURGLARY CONVEYANCE
170627431195 6-27 23:12 5600 SOLOMON RD 37 UNVERIFIED 911 CALL
170627431206 6-27 23:12 9900 JEANETTE RD 20 PROWLER
170627431205 6-27 23:11 4000 UNIVERSITY BLVD 13 SUSPICIOUS PERSON
170627431202 6-27 23:10 400 S ELLIS RD 21BP BURGLARY BUSINESS IN PROGRESS
170627431201 6-27 23:08 2100 HYDE PARK RD 1050 TRAFFIC STOP
170627431200 6-27 23:07 700 DUVAL STATION RD 1050 TRAFFIC STOP
170627431197 6-27 23:06 8000 E BAYMEADOWS RD 13 SUSPICIOUS PERSON
170627431193 6-27 23:05 1400 E 16TH ST 90 FIREWORKS
170627431192 6-27 23:03 W BEAVER ST AND S CHAFFEE RD 1050 TRAFFIC STOP
170627431190 6-27 23:03 3200 BRIDIER ST 33 DISCHARGING OF FIREARM
170627431181 6-27 23:02 1100 MC KINLAY CT 13 SUSPICIOUS PERSON
170627431189 6-27 23:02 E 15TH ST AND BUCKMAN ST 90 FIREWORKS
170627431188 6-27 23:02 W I10 EXPWY AND S I295 EXPWY 4 AUTO CRASH
170627431087 6-27 23:02 100 N PEARL ST 63 DISPUTE
170627431135 6-27 22:59 SAN JOSE BLVD AND PALL MALL DR 13 SUSPICIOUS PERSON
170627431183 6-27 22:57 W I10 EXPWY AND S LANE AVE 13 SUSPICIOUS PERSON
170627431180 6-27 22:56 2500 DUNN AVE 1050 TRAFFIC STOP
170627431179 6-27 22:56 W 8TH ST AND FRANCIS ST 1050 TRAFFIC STOP
170627431176 6-27 22:55 10100 BEACH BLVD 13 SUSPICIOUS PERSON
170627431173 6-27 22:54 3100 HARTLEY RD 4 AUTO CRASH
170627431146 6-27 22:53 1900 E DELAROCHE DR 22 DOMESTIC
170627431175 6-27 22:52 CASSAT AVE AND E I10 EXPWY 13 SUSPICIOUS PERSON
170627431164 6-27 22:52 2600 MYRA ST 64 NOISE COMPLAINT
170627431174 6-27 22:51 600 CASSAT AVE 1050 TRAFFIC STOP
170627431170 6-27 22:48 E STATE ST AND N MAIN ST 1050 TRAFFIC STOP
170627431167 6-27 22:48 OCEAN ST AND PEARL ST 76 ASSIST OTHER AGENCY
170627431124 6-27 22:48 3300 N MAIDEN VOYAGE CIR 27 MENTALLY ILL PERSON
170627431168 6-27 22:47 MARTIN LUTHER KING JR PKWY AND N MYRTLE AVE 1050 TRAFFIC STOP
170627431166 6-27 22:47 UNIVERSITY BLVD AND FLORAL BLUFF RD 33 DISCHARGING OF FIREARM
170627431165 6-27 22:45 SOUTHSIDE BLVD AND BAYMEADOWS RD 13 SUSPICIOUS PERSON
170627431163 6-27 22:44 S OLD KINGS RD AND POWERS AVE 1 IMPAIRED/DRUNK DRIVER
170627431159 6-27 22:44 CHERRY LAUREL DR AND HYDE PARK RD 13 SUSPICIOUS PERSON
170627431161 6-27 22:43 OSA/BART 1050 TRAFFIC STOP
170627431157 6-27 22:41 600 PICKETVILLE RD 16 ROAD OBSTRUCTION
170627431154 6-27 22:40 S ST JOHNS BLUFF RD AND S I295 EXPWY 16 ROAD OBSTRUCTION
170627431145 6-27 22:39 1600 IONIA ST 2 63 DISPUTE IMPAIRED/INTOXICATED
170627431122 6-27 22:39 6500 RAMONA BLVD 63 DISPUTE
170627431152 6-27 22:38 800 DUNN AVE 33 DISCHARGING OF FIREARM
170627431151 6-27 22:37 SOUTHSIDE BLVD AND A C SKINNER PKWY 1050 TRAFFIC STOP
170627431148 6-27 22:37 700 DUVAL STATION RD 1050 TRAFFIC STOP
170627431143 6-27 22:35 1800 WHITNER ST 63 DISPUTE
170627431147 6-27 22:34 103RD ST AND KEN RD 16 ROAD OBSTRUCTION
170627431116 6-27 22:34 SOUTHSIDE CONNECTOR BLVD AND MERRILL RD 4 AUTO CRASH
170627431138 6-27 22:32 N I295 EXPWY 16 ROAD OBSTRUCTION
170627431141 6-27 22:31 1400 W 14TH ST 1050 TRAFFIC STOP
170627431083 6-27 22:31 CONFEDERATE POINT RD AND BLANDING BLVD 27 MENTALLY ILL PERSON
170627431125 6-27 22:30 8500 SPRINGTREE RD 63 DISPUTE
170627431105 6-27 22:29 500 WOODBINE ST 63 DISPUTE
170627431123 6-27 22:27 3700 TOLEDO RD 64 NOISE COMPLAINT
170627431134 6-27 22:26 3600 COLLEGE PL 13 SUSPICIOUS PERSON
170627431041 6-27 22:26 11800 SAN JOSE BLVD 14B VANDALISM BUSINESS
170627431132 6-27 22:26 13300 ATLANTIC BLVD 76 ASSIST OTHER AGENCY
170627431133 6-27 22:25 3200 PHILIPS HWY 10R VEHICLE THEFT RECOVERY
170627431117 6-27 22:24 1000 PARK ST 63 DISPUTE
170627431131 6-27 22:24 10200 W BEAVER ST 14RJ VANDALISM RESIDENCE JUST OCCURRED
170627431128 6-27 22:23 SUNBEAM/THOMAS 1050 TRAFFIC STOP
170627431094 6-27 22:23 5500 ROOSEVELT BLVD 13 SUSPICIOUS PERSON
170627431127 6-27 22:23 10200 N MAIN ST 1050 TRAFFIC STOP
170627431095 6-27 22:22 5800 NORMANDY BLVD 63 DISPUTE
170627431120 6-27 22:22 2600 UNIVERSITY BLVD 21CT BURGLARY CONVEYANCE TELESERVE
170627431078 6-27 22:21 10600 LEM TURNER RD 3 HIT AND RUN CRASH
170627431075 6-27 22:21 800 S LANE AVE 27 MENTALLY ILL PERSON
170627431121 6-27 22:20 3200 POST ST 1066 CANCEL
170627431113 6-27 22:19 7200 NORMANDY BLVD 4 AUTO CRASH
170627431114 6-27 22:19 1500 W 36TH ST 14 VANDALISM
170627430941 6-27 22:18 9000 WARWICKSHIRE RD 90 FIREWORKS
170627431070 6-27 22:18 N I95 EXPWY AND KINGS AVE 16 ROAD OBSTRUCTION
170627431119 6-27 22:18 N I295 EXPWY AND COLLINS RD 16 ROAD OBSTRUCTION
170627431112 6-27 22:16 6700 PATANIA WAY 8 MISSING PERSON
170627431107 6-27 22:16 N I295 EXPWY AND S ST JOHNS BLUFF RD 4 AUTO CRASH
170627431097 6-27 22:14 3500 TOWNSEND BLVD 22 DOMESTIC
170627431110 6-27 22:14 W 2ND ST AND POWHATTAN ST 1050 TRAFFIC STOP
170627431076 6-27 22:12 5400 CARDAN RD 2 22 DOMESTIC DISTURBANCE
170627431109 6-27 22:11 500 E ADAMS ST 9 THEFT
170627431102 6-27 22:11 6700 VAN GUNDY RD 22 DOMESTIC
170627431108 6-27 22:10 500 E ADAMS ST 9 THEFT
170627431100 6-27 22:10 1200 E 1ST ST 33 DISCHARGING OF FIREARM
170627431033 6-27 22:09 1600 LANSDOWNE DR 1066 CANCEL
170627431093 6-27 22:09 600 N MAIN ST 13 SUSPICIOUS PERSON
170627431085 6-27 22:08 1500 W 11TH ST 63 DISPUTE
170627431098 6-27 22:07 MONCRIEF RD AND GOLFAIR BLVD 1050 TRAFFIC STOP
170627431096 6-27 22:07 10600 NORTH CAMPUS BLVD 13 SUSPICIOUS PERSON
170627431073 6-27 22:07 E I10 EXPWY AND S I95 EXPWY 11 ABANDONED VEHICLE
170627431092 6-27 22:06 GROTHE ST AND N MYRTLE AVE 1050 TRAFFIC STOP
170627431086 6-27 22:04 E 15TH ST AND N MAIN ST 33 DISCHARGING OF FIREARM
170627431053 6-27 22:03 8000 ATLANTIC BLVD 63 DISPUTE
170627431089 6-27 22:03 S I295 EXPWY AND PRITCHARD RD 1050 TRAFFIC STOP
170627431088 6-27 22:02 7700 I295 EAST BELTWAY 38 TRAFFIC ASSIGNMENT
170627431081 6-27 22:01 3200 DISCOVERY WAY 60 SUICIDE OR ATTEMPT
170627431039 6-27 22:00 3700 ALMEDA ST 9T THEFT (TELESERVE)
170627431050 6-27 21:59 3200 COLLEGE ST 63 DISPUTE
170627431074 6-27 21:58 ATLANTIC BLVD AND UNIVERSITY BLVD 1050 TRAFFIC STOP
170627431069 6-27 21:56 MAIN/FORD 1050 TRAFFIC STOP
170627431035 6-27 21:56 5700 TIMUQUANA RD 63 DISPUTE
170627431068 6-27 21:55 6900 DELISLE DR 13 SUSPICIOUS PERSON
170627431052 6-27 21:54 11200 SAN JOSE BLVD 1066 CANCEL
170627431064 6-27 21:54 4200 S UNIVERSITY BLVD 0 23IJ ARMED ROBBERY INDIVIDUAL JUST OCCURRED
170627431007 6-27 21:54 MANDARIN RD AND COUNTY DOCK RD 4 AUTO CRASH
170627430998 6-27 21:53 11300 W BEAVER ST 63 DISPUTE
170627431059 6-27 21:52 5600 BARNHILL DR 0 23IJ ARMED ROBBERY INDIVIDUAL JUST OCCURRED
170627431051 6-27 21:52 10500 CRAIG DR 63 DISPUTE
170627431062 6-27 21:52 PINEHURST AND BROWARD RD 96 ASSIST MOTORIST
170627431058 6-27 21:52 13200 CITY SQUARE DR 5388 ASSAULT INVOLVING INJURY
170627431056 6-27 21:50 9400 ATLANTIC BLVD 1050 TRAFFIC STOP
170627431054 6-27 21:49 UNIVERSITY BLVD AND EDENFIELD RD 1050 TRAFFIC STOP
170627431048 6-27 21:47 6600 RESTLAWN DR 1066 CANCEL
170627431049 6-27 21:47 SAN DEIGO/BETHAL 1050 TRAFFIC STOP
170627431005 6-27 21:46 BARNETT ST AND PRINCE ST 73 DRUG INVESTIGATION
170627431042 6-27 21:46 GILMORE ST AND SHEARER AVE 90 FIREWORKS
170627431046 6-27 21:45 4000 S VICTORIA LAKES DR 63 DISPUTE
170627431045 6-27 21:44 W 30TH ST AND N MAIN ST 1050 TRAFFIC STOP
170627431044 6-27 21:44 7500 PRICE RD 13 SUSPICIOUS PERSON
170627431034 6-27 21:43 N I95 EXPWY AND PECAN PARK RD 16 ROAD OBSTRUCTION
170627431011 6-27 21:41 N DAVIS ST AND W UNION ST 4 AUTO CRASH
170627431043 6-27 21:41 UNIV/BARNES 1050 TRAFFIC STOP
170627431038 6-27 21:40 5800 W UNIV 1050 TRAFFIC STOP
170627431023 6-27 21:39 4500 KERLE ST 21R BURGLARY RESIDENCE
170627431029 6-27 21:39 4900 TAN ST 60 SUICIDE OR ATTEMPT
170627431036 6-27 21:39 KINGS RD AND GRUNTHAL ST 1050 TRAFFIC STOP
170627431031 6-27 21:37 CLARK RD AND BROWARD RD 12 RECKLESS DRIVER
170627430972 6-27 21:37 4300 S NARANJA DR 1066 CANCEL
170627431018 6-27 21:36 S I295 EXPWY AND OLD ST AUGUSTINE RD 91 TRAFFIC LIGHT/RR CROSSING MALFUNCTION
170627431026 6-27 21:36 RACETRACK/VETERANS PARK 4 53 TRAFFIC CRASH PERSON INJURED
170627431020 6-27 21:34 N MARKET ST AND E ADAMS ST 1050 TRAFFIC STOP
170627431019 6-27 21:34 2700 HUFFMAN BLVD 13 SUSPICIOUS PERSON
170627431016 6-27 21:33 6100 TRANSYLVANIA AVE 60 SUICIDE OR ATTEMPT
170627431017 6-27 21:33 N MARKET ST AND E ADAMS ST 1 IMPAIRED/DRUNK DRIVER
170627430964 6-27 21:32 2100 SPRING PARK RD 63 DISPUTE
170627431015 6-27 21:32 7400 S SKYE DR 1066 CANCEL
170627430957 6-27 21:32 SOUTHSIDE BLVD AND BAYMEADOWS RD 2 IMPAIRED/INTOXICATED
170627431013 6-27 21:32 N I95 EXPWY AND EMERSON ST 1050 TRAFFIC STOP
170627431010 6-27 21:30 N OCEAN ST AND E ADAMS ST 12 RECKLESS DRIVER
170627431009 6-27 21:30 JTB/BELFORT 1050 TRAFFIC STOP
170627430985 6-27 21:29 3300 N DAVIS ST 64 NOISE COMPLAINT
170627431008 6-27 21:29 N EDGEWOOD AVE AND W 20TH ST 1050 TRAFFIC STOP
170627431003 6-27 21:29 POST ST AND S MC DUFF AVE 22 DOMESTIC
170627430908 6-27 21:29 3900 ROBERT C WEAVER DR 22 DOMESTIC
170627431006 6-27 21:28 S UNIVERSITY BLVD AND BEACH BLVD 4 AUTO CRASH
170627431004 6-27 21:28 400 PALMETTO ST 37 UNVERIFIED 911 CALL
170627431001 6-27 21:27 11400 MC CORMICK RD 64 NOISE COMPLAINT
170627430999 6-27 21:26 2100 W 16TH ST 0 63 ARMED DISPUTE
170627431000 6-27 21:26 900 MONUMENT RD 1050 TRAFFIC STOP
170627430987 6-27 21:25 9400 CULPEPER AVE 1066 CANCEL
170627430995 6-27 21:25 2200 POST ST 37 UNVERIFIED 911 CALL
170627430971 6-27 21:24 3100 FRANKLIN ST 56 JUVENILE COMPLAINT
170627430993 6-27 21:23 12600 N MAIN ST 1050 TRAFFIC STOP
170627430983 6-27 21:21 CHERRY LAUREL DR AND HYDE PARK RD 13 SUSPICIOUS PERSON
170627430973 6-27 21:21 4300 SUNBEAM RD 37 UNVERIFIED 911 CALL
170627430968 6-27 21:21 3000 MONCRIEF RD 9J THEFT JUST OCCURRED
170627430991 6-27 21:21 13000 CITY STAT 1050 TRAFFIC STOP
170627430989 6-27 21:19 200 N HOGAN ST 76 ASSIST OTHER AGENCY
170627430982 6-27 21:15 11000 HARTS RD 63 DISPUTE
170627430980 6-27 21:15 1700 W 9TH ST 13 SUSPICIOUS PERSON
170627430931 6-27 21:14 900 MONUMENT RD 54 ILLEGALLY PARKED CAR
170627430969 6-27 21:13 5200 E LA VENTURA DR 8 MISSING PERSON
170627430916 6-27 21:13 4300 CONFEDERATE POINT RD 54 ILLEGALLY PARKED CAR
170627430976 6-27 21:11 8100 BLANDING BLVD 63 DISPUTE
170627430979 6-27 21:11 700 N MAIN ST 1050 TRAFFIC STOP
170627430977 6-27 21:09 7300 N MELVIN CIR 76 ASSIST OTHER AGENCY
170627430970 6-27 21:08 LE BRUN DR AND NORMANDY BLVD 16 ROAD OBSTRUCTION
170627430944 6-27 21:07 5400 COLLINS RD 3 HIT AND RUN CRASH
170627430965 6-27 21:06 N I295 EXPWY AND DUVAL RD 4 AUTO CRASH
170627430966 6-27 21:06 12000 LAKE FERN 1050 TRAFFIC STOP
170627430962 6-27 21:04 1200 S LANE AVE 50 FOUND/ABANDONED PROPERTY
170627430959 6-27 21:04 2400 IRONWOOD DR 8 27 MISSING MENTALLY ILL
170627430955 6-27 21:01 100 S ACOSTA BRG 16 ROAD OBSTRUCTION
170627430954 6-27 21:00 700 MARKET 1050 TRAFFIC STOP
170627430951 6-27 21:00 11000 W BACALL RD 8 MISSING PERSON
170627430952 6-27 21:00 6900 103RD ST 70 COUNTERFEIT
170627430911 6-27 21:00 11400 BEACH BLVD 61 FIGHT
170627430925 6-27 20:59 8700 SOUTHSIDE BLVD 54 ILLEGALLY PARKED CAR
170627430940 6-27 20:59 1000 E 21ST ST 63 DISPUTE
170627430946 6-27 20:58 N I95 EXPWY AND LEM TURNER RD 4 53 TRAFFIC CRASH PERSON INJURED
170627430945 6-27 20:57 2200 SOTTERLEY LN 63 DISPUTE
170627430947 6-27 20:56 OLD ST AUGUSTINE RD AND S WHISPERING FOREST DR 1050 TRAFFIC STOP
170627430942 6-27 20:56 2800 W 6TH ST 63 DISPUTE
170627430943 6-27 20:55 N HOGAN ST AND W BEAVER ST 1050 TRAFFIC STOP
170627430914 6-27 20:55 9400 ATLANTIC BLVD 63 DISPUTE
170627430927 6-27 20:55 LAMB CT AND DICKENS DR 22 DOMESTIC
170627430938 6-27 20:55 5800 JUSTINA CT 22 DOMESTIC
170627430928 6-27 20:48 4100 N OLD MIDDLEBURG RD 63 DISPUTE
170627430929 6-27 20:48 8800 BEACH 1050 TRAFFIC STOP
170627430921 6-27 20:46 2300 BURPEE DR 88 ASSAULT
170627430924 6-27 20:46 5000 CLEVELAND RD 60 SUICIDE OR ATTEMPT
170627430919 6-27 20:45 NORMANDY BLVD AND N I295 EXPWY 16 ROAD OBSTRUCTION
170627430923 6-27 20:44 4300 SUNBEAM RD 63 DISPUTE
170627430922 6-27 20:44 PARK ST AND DORA ST 1050 TRAFFIC STOP
170627430917 6-27 20:43 SOU/CLY 1050 TRAFFIC STOP
170627430912 6-27 20:42 8700 EATON AVE 22 DOMESTIC
170627430915 6-27 20:42 5000 SAN JOSE BLVD 1050 TRAFFIC STOP
170627430888 6-27 20:39 10900 FALKLAND RD 79T OBSCENE / THREAT CALL OR LETTER TELESERVE
170627430883 6-27 20:38 2400 W SHELBY CREEK RD 63 DISPUTE
170627430910 6-27 20:37 103RD ST AND BRANNON AVE 1050 TRAFFIC STOP
170627430909 6-27 20:37 2900 SRA1A HWY 8 MISSING PERSON
170627430861 6-27 20:36 S I295 EXPWY AND OLD ST AUGUSTINE RD 96 ASSIST MOTORIST
170627430874 6-27 20:36 S KERNAN BLVD AND ALUMNI DR 3 HIT AND RUN CRASH
170627430869 6-27 20:34 4800 SUNDERLAND RD 2 22 DOMESTIC DISTURBANCE
170627430906 6-27 20:33 2700 W 20TH ST EXPY 96 ASSIST MOTORIST
170627430884 6-27 20:32 9900 BAYMEADOWS RD 63 DISPUTE
170627430904 6-27 20:31 GIRVIN RD AND ASHLEY MELISSE BLVD 13 SUSPICIOUS PERSON
170627430899 6-27 20:31 6900 MORSE AVE 2 22 DOMESTIC DISTURBANCE
170627430902 6-27 20:30 200 S US 301 HWY 16 ROAD OBSTRUCTION
170627430857 6-27 20:30 1600 LANDAU RD 23I ROBBERY INDIVIDUAL
170627430898 6-27 20:30 8700 COCOA AVE 7 DEAD PERSON
170627430897 6-27 20:29 W 17TH ST AND N LAURA ST 63 DISPUTE
170627430896 6-27 20:29 N CHAFFEE RD AND W BEAVER ST 4 AUTO CRASH
170627430900 6-27 20:29 S I295 EXPWY AND ALTA DR 76 ASSIST OTHER AGENCY
170627430890 6-27 20:28 1600 W EDGEWOOD AVE 9J THEFT JUST OCCURRED
170627430895 6-27 20:27 S I95 EXPWY AND EMERSON ST 1050 TRAFFIC STOP
170627430893 6-27 20:27 AVENUE B AND BENEDICT RD 1050 TRAFFIC STOP
170627430885 6-27 20:23 2900 DOWNING ST 9 THEFT
170627430879 6-27 20:21 KINGS RD AND N CANAL ST 13 SUSPICIOUS PERSON
170627430876 6-27 20:19 8400 HEWITT ST 28 DELIVER MESSAGE
170627430878 6-27 20:19 103RD ST AND HARLOW BLVD 1050 TRAFFIC STOP
170627430877 6-27 20:18 3400 SOUTHSIDE SERVICE RD 63 DISPUTE
170627430875 6-27 20:17 6100 BAGLEY RD 6388 DISPUTE WITH ASSAULT
170627430849 6-27 20:17 3000 DUNN AVE 63 DISPUTE
170627430868 6-27 20:16 3500 HARTSFIELD FOREST CIR 13 SUSPICIOUS PERSON
170627430728 6-27 20:16 9700 TAPESTRY PARK CIR 95 FRAUD/FORGED (CHECK, ID, RX)
170627430774 6-27 20:16 BAYMEADOWS RD AND SOUTHSIDE BLVD 2 IMPAIRED/INTOXICATED
170627430863 6-27 20:13 900 ACORN ST 56 JUVENILE COMPLAINT
170627430872 6-27 20:13 MERRILL RD AND UNIVERSITY BLVD 1050 TRAFFIC STOP
170627430864 6-27 20:12 8800 BELLROSE AVE 63 DISPUTE
170627430870 6-27 20:12 1000 AIRPORT RD 13 SUSPICIOUS PERSON
170627430844 6-27 20:09 1100 LAKE SHORE BLVD 64 NOISE COMPLAINT
170627430865 6-27 20:09 N I95 EXPWY AND ZOO PKWY 1050 TRAFFIC STOP
170627430814 6-27 20:09 NEVA ST AND PLYMOUTH ST 64 NOISE COMPLAINT
170627430853 6-27 20:05 2700 MONUMENT RD 1066 CANCEL
170627430794 6-27 20:05 SAN JOSE BLVD AND VENTURE PL 63 DISPUTE
170627430856 6-27 20:04 N I295 EXPWY AND N MAIN ST 4 53 TRAFFIC CRASH PERSON INJURED
170627430855 6-27 20:03 9100 103RD ST 73 DRUG INVESTIGATION
170627430854 6-27 20:02 N MYRTLE AVE AND PRINCE ST 1050 TRAFFIC STOP
170627430851 6-27 20:01 100 NEW BERLIN RD 13 SUSPICIOUS PERSON
170627430848 6-27 20:00 9800 HUTCHINSON PARK DR 14 VANDALISM
170627430837 6-27 19:59 PHILIPS HWY AND ENERGY CENTER DR 4 AUTO CRASH
170627430847 6-27 19:58 W I10 EXPWY AND STOCKTON ST 1050 TRAFFIC STOP
170627430846 6-27 19:58 BARNETT ST AND W 26TH ST 1050 TRAFFIC STOP
170627430845 6-27 19:57 12600 N MAIN ST 9J THEFT JUST OCCURRED
170627430843 6-27 19:56 MARTIN LUTHER KING JR PKWY AND WILSON ST 1050 TRAFFIC STOP
170627430839 6-27 19:56 4000 S VICTORIA LAKES DR 22 DOMESTIC
170627430840 6-27 19:55 RONDO AVE AND ARMCO ST 1050 TRAFFIC STOP
170627430810 6-27 19:55 9800 HUTCHINSON PARK DR 9J THEFT JUST OCCURRED
170627430836 6-27 19:54 N I95 EXPWY AND N I295 EXPWY 4 AUTO CRASH
170627430834 6-27 19:53 DETROIT ST AND W 6TH ST 0 88P ARMED ASSAULT IN PROGRESS
170627430828 6-27 19:53 6300 BEACH BLVD 27 MENTALLY ILL PERSON
170627430832 6-27 19:52 6700 N MISS MUFFET LN 3388 DISCHARGING FIREARM AT PERSON
170627430817 6-27 19:51 1100 AIRPORT RD 63 DISPUTE
170627430826 6-27 19:50 1000 GOLFAIR BLVD 16 ROAD OBSTRUCTION
170627430825 6-27 19:49 2900 NEWELL BLVD 1050 TRAFFIC STOP
170627430806 6-27 19:48 300 W 19TH ST 1066 CANCEL
170627430771 6-27 19:48 10900 FALKLAND RD 79T OBSCENE / THREAT CALL OR LETTER TELESERVE
170627430823 6-27 19:48 W 33RD ST AND MONCRIEF RD 13 SUSPICIOUS PERSON
170627430822 6-27 19:47 200 W UNION ST 63 DISPUTE
170627430821 6-27 19:47 9500 CRYSTAL SPRINGS RD 33 DISCHARGING OF FIREARM
170627430818 6-27 19:47 8800 MERSEYSIDE AVE 22 DOMESTIC
170627430820 6-27 19:46 W UNIVERSITY BLVD AND SPRING PARK RD 4 AUTO CRASH
170627430815 6-27 19:44 5300 110TH ST 76 ASSIST OTHER AGENCY
170627430816 6-27 19:44 9800 HUTCHINSON PARK DR 5388 ASSAULT INVOLVING INJURY
170627430754 6-27 19:43 5400 VILLAGE POND CT 1066 CANCEL
170627430811 6-27 19:42 5700 N MAIN ST 63 DISPUTE
170627430808 6-27 19:41 PHILIPS HWY AND OLD ST AUGUSTINE RD 4 AUTO CRASH
170627430803 6-27 19:39 SOUTEL DR AND N VICTORIA LANDING DR 1050 TRAFFIC STOP
170627430782 6-27 19:38 8000 W RAMONA BLVD 9 THEFT
170627430800 6-27 19:38 3500 HERSCHEL ST 22 DOMESTIC
170627430795 6-27 19:35 4500 BARNABY DR 76 ASSIST OTHER AGENCY
170627430796 6-27 19:35 3800 PARK ST 73 DRUG INVESTIGATION
170627430734 6-27 19:35 6900 103RD ST 70 COUNTERFEIT
170627430793 6-27 19:34 S I295 EXPWY AND SOUTHSIDE CONNECTOR BLVD 3 53 HIT AND RUN CRASH W/FIRE
170627430761 6-27 19:33 4800 GATE PKWY 3 HIT AND RUN CRASH
170627430769 6-27 19:32 9400 SAN JOSE BLVD 50 FOUND/ABANDONED PROPERTY
170627430780 6-27 19:32 S I295 EXPWY AND S ST JOHNS BLUFF RD 4 AUTO CRASH
170627430785 6-27 19:31 N OCEAN ST AND E BEAVER ST 76 ASSIST OTHER AGENCY
170627430787 6-27 19:31 5900 ROUND TABLE RD 1066 CANCEL
170627430784 6-27 19:30 2500 SRA1A HWY 60 SUICIDE OR ATTEMPT
170627430764 6-27 19:30 1200 LABELLE ST 13 SUSPICIOUS PERSON
170627430758 6-27 19:29 2700 CHAPMAN OAK DR 21RJ BURGLARY RESIDENCE JUST OCCURRED
170627430757 6-27 19:28 10500 BISCAYNE BLVD 1066 CANCEL
170627430767 6-27 19:26 600 CASSAT AVE 63 DISPUTE
170627430777 6-27 19:25 W 26TH ST AND N PEARL ST 9 THEFT
170627430768 6-27 19:25 12100 LEM TURNER RD 55 HOLDING ONE
170627430772 6-27 19:24 1500 IONIA ST 63 DISPUTE
170627430762 6-27 19:21 CECIL COMMERCE CENTER PKWY AND NORMANDY BLVD 4 AUTO CRASH
170627430763 6-27 19:20 2200 HILLY RD 76 ASSIST OTHER AGENCY
170627430667 6-27 19:14 13200 CITY STATION DR 50 FOUND/ABANDONED PROPERTY
170627430733 6-27 19:12 1700 W 26TH ST 1066 CANCEL
170627430738 6-27 19:12 PERDUE RD AND STARRATT RD 13 SUSPICIOUS PERSON
170627430715 6-27 19:12 SCOTT MILL RD AND CHAPMAN OAK DR 21R BURGLARY RESIDENCE
170627430752 6-27 19:11 1000 S LANE AVE 4 53 TRAFFIC CRASH PERSON INJURED
170627430743 6-27 19:11 7900 S PATOU DR 37 UNVERIFIED 911 CALL
170627430751 6-27 19:08 300 QUEENS HARBOR BLVD 1050 TRAFFIC STOP
170627430748 6-27 19:08 1200 S LANE AVE 76 ASSIST OTHER AGENCY
170627430745 6-27 19:08 4100 SOUTHSIDE BLVD 2 63 DISPUTE IMPAIRED/INTOXICATED
170627430750 6-27 19:07 1000 SUPERIOR ST 19 ANIMAL INVESTIGATION
170627430706 6-27 19:05 3300 GLADYS ST 56 JUVENILE COMPLAINT
170627430737 6-27 19:05 SAGE DR AND JAMMES RD 1066 CANCEL
170627430722 6-27 19:05 10300 ALLENE RD 22 DOMESTIC
170627430640 6-27 19:04 13200 CITY SQUARE DR 3 HIT AND RUN CRASH
170627430705 6-27 19:04 2100 BARTRAM RD 22 DOMESTIC
170627430732 6-27 19:03 5200 W UNIVERSITY BLVD 76 ASSIST OTHER AGENCY
170627430684 6-27 19:03 5400 NORMANDY BLVD 63 DISPUTE
170627430731 6-27 19:02 9300 103RD ST 1050 TRAFFIC STOP
170627430710 6-27 19:02 1500 MORGAN ST 1066 CANCEL
170627430713 6-27 19:02 100 E 8TH ST 50 FOUND/ABANDONED PROPERTY
170627430698 6-27 19:01 8700 NEWTON RD 9T THEFT (TELESERVE)
170627430730 6-27 19:01 1100 DUNN AVE 5582 HOLDING ONE FOR SHOPLIFTING
170627430663 6-27 19:01 5900 ROCKY MOUNT DR 3T HIT AND RUN CRASH - TELESERVE
170627430727 6-27 19:01 6300 N SPRINKLE DR 1050 TRAFFIC STOP
170627430726 6-27 19:00 N I295 EXPWY AND MORSE AVE 96 ASSIST MOTORIST
170627430721 6-27 18:59 2000 ROGERO RD 9 THEFT
170627430723 6-27 18:59 7700 NORMANDY BLVD 63 DISPUTE
170627430714 6-27 18:58 5200 BAYMEADOWS RD 4 AUTO CRASH
170627430720 6-27 18:57 DIVISION ST AND W 25TH ST 1050 TRAFFIC STOP
170627430718 6-27 18:56 3800 PARK ST 1050 TRAFFIC STOP
170627430675 6-27 18:55 3000 MONCRIEF RD 1066 CANCEL
170627430702 6-27 18:55 2700 W LANTANA LAKES DR 9 THEFT
170627430712 6-27 18:54 103RD ST AND S I295 EXPWY 96 ASSIST MOTORIST
170627430711 6-27 18:53 N MAIN ST AND TROUT RIVER DR 1050 TRAFFIC STOP
170627430704 6-27 18:53 11300 SAN JOSE BLVD 4 AUTO CRASH
170627430709 6-27 18:53 6000 W MONCRIEF RD 1050 TRAFFIC STOP
170627430701 6-27 18:52 MANDARIN RD AND ST LAWRENCE WAY 16 ROAD OBSTRUCTION
170627430703 6-27 18:52 MANDARIN RD AND SAN JOSE BLVD 4 AUTO CRASH
170627430688 6-27 18:51 300 E 17TH ST 88J ASSAULT JUST OCCURRED
170627430627 6-27 18:48 4300 ATLANTIC BLVD 22 DOMESTIC
170627430676 6-27 18:47 2000 ARDENCROFT DR 4 AUTO CRASH
170627430694 6-27 18:46 400 MONUMENT RD 0 63 ARMED DISPUTE
170627430659 6-27 18:45 900 S LANE AVE 63 DISPUTE
170627430656 6-27 18:44 1900 NEW BERLIN RD 4 AUTO CRASH
170627430695 6-27 18:44 300 QUEENS HARBOR BLVD 1050 TRAFFIC STOP
170627430669 6-27 18:43 11100 OLD ST AUGUSTINE RD 9 THEFT
170627430692 6-27 18:43 200 PECAN ST 1050 TRAFFIC STOP
170627430683 6-27 18:41 600 METEOR ST 21R BURGLARY RESIDENCE
170627430685 6-27 18:41 1500 S LANE AVE 63 DISPUTE
170627430677 6-27 18:39 S I95 EXPWY 16 ROAD OBSTRUCTION
170627430671 6-27 18:38 5200 W UNIVERSITY BLVD 63 DISPUTE
170627430686 6-27 18:37 6400 BOB-O-LINK RD 1050 TRAFFIC STOP
170627430639 6-27 18:37 10300 SEAL RD 21R BURGLARY RESIDENCE
170627430629 6-27 18:35 500 CYNTHIA ST 9T THEFT (TELESERVE)
170627430666 6-27 18:33 1700 DOT ST 88 ASSAULT
170627430665 6-27 18:32 1300 OTIS RD 22 DOMESTIC
170627430631 6-27 18:31 N I295 EXPWY AND S ST JOHNS BLUFF RD 4 AUTO CRASH
170627430614 6-27 18:30 4600 N ILAH RD 4 AUTO CRASH
170627430662 6-27 18:29 7000 BEACH BLVD 27 MENTALLY ILL PERSON
170627430668 6-27 18:29 1000 W 8TH ST 2288 DOMESTIC DISPUTE WITH/ASSAULT
170627430655 6-27 18:28 N I95 EXPWY AND ZOO PKWY 13 SUSPICIOUS PERSON
170627430599 6-27 18:28 8700 NEWTON RD 9T THEFT (TELESERVE)
170627430660 6-27 18:24 LASALLE ST AND MINERVA AVE 13 SUSPICIOUS PERSON
170627430596 6-27 18:22 700 W 4TH ST 63 DISPUTE
170627430658 6-27 18:21 10900 BAYM 1050 TRAFFIC STOP
170627430653 6-27 18:20 6000 YOUNGERMAN CIR 76 ASSIST OTHER AGENCY
170627430620 6-27 18:19 2300 ST LEGER DR 22 DOMESTIC
170627430652 6-27 18:19 2100 BIRCH BARK DR 1050 TRAFFIC STOP
170627430648 6-27 18:16 4800 ROCHDALE RD 10R VEHICLE THEFT RECOVERY
170627430646 6-27 18:14 S I95/OLD ST AUGUSTINE 96 ASSIST MOTORIST
170627430570 6-27 18:13 5400 W MONCRIEF RD 21CT BURGLARY CONVEYANCE TELESERVE
170627430499 6-27 18:13 1500 FERNDALE PL 63 DISPUTE
170627430615 6-27 18:12 3000 CORONET LN 76 ASSIST OTHER AGENCY
170627430637 6-27 18:11 5600 CALIFORNIA AVE 63 DISPUTE
170627430597 6-27 18:11 SOUTHSIDE BLVD AND J TURNER BUTLER BLVD 4 AUTO CRASH
170627430601 6-27 18:11 PHILIPS HWY AND SOUTHSIDE BLVD 4 AUTO CRASH
170627430633 6-27 18:11 N I295 EXPWY AND DUVAL RD 96 ASSIST MOTORIST
170627430586 6-27 18:11 SOUTHSIDE BLVD AND LEAHY RD 4 AUTO CRASH
170627430638 6-27 18:10 5600 CALIFORNIA AVE 63 DISPUTE
170627430641 6-27 18:10 10400 BAYMEADOWS RD 38 TRAFFIC ASSIGNMENT
170627430590 6-27 18:09 BELFORT RD AND S SOUTHPOINT PKWY 4 AUTO CRASH
170627430635 6-27 18:09 2700 MAPLEWOOD ST 8FP MISSING PERSON FOUL
170627430636 6-27 18:09 8400 GALVESTON AVE 1050 TRAFFIC STOP
170627430634 6-27 18:08 3000 ZOO 1050 TRAFFIC STOP
170627430632 6-27 18:08 900 N ARLINGTON RD 21C BURGLARY CONVEYANCE
170627430630 6-27 18:06 900 DUNN AVE 50 FOUND/ABANDONED PROPERTY
170627430525 6-27 18:05 CHESWICK OAK AVE AND ARGYLE FOREST BLVD 4 AUTO CRASH
170627430612 6-27 18:04 9000 SAN JOSE BLVD 1066 CANCEL
170627430621 6-27 18:03 4900 VERDIS ST 13 SUSPICIOUS PERSON
170627430558 6-27 18:03 4200 PHILIPS HWY 95ID IDENTITY THEFT
170627430607 6-27 18:03 N I95 EXPWY AND EMERSON ST 4 AUTO CRASH
170627430623 6-27 18:03 3100 PLUM ST 88P ASSAULT IN PROGRESS
170627430610 6-27 18:01 NORSE DR AND BLANK DR 11 ABANDONED VEHICLE
170627430618 6-27 18:01 1000 MELSON AVE 63 DISPUTE
170627430619 6-27 18:00 9100 EATON 1050 TRAFFIC STOP
170627430617 6-27 18:00 1100 W 6TH ST 22 DOMESTIC
170627430616 6-27 17:59 W 48TH ST AND N MAIN ST 1050 TRAFFIC STOP
170627430582 6-27 17:56 S I295 EXPWY AND J TURNER BUTLER BLVD 4 AUTO CRASH
170627430609 6-27 17:55 5900 BEACH BLVD 1066 CANCEL
170627430602 6-27 17:53 5500 HYDE PARK CIR 9 THEFT
170627430587 6-27 17:51 10700 BEACH BLVD 4 AUTO CRASH
170627430576 6-27 17:50 5900 NORMANDY BLVD 70 COUNTERFEIT
170627430520 6-27 17:49 9500 103RD ST 63 DISPUTE
170627430332 6-27 17:49 9000 SOUTHSIDE BLVD 63 DISPUTE
170627430544 6-27 17:49 N GATE PKWY AND E TOUCHTON RD 11 ABANDONED VEHICLE
170627430467 6-27 17:48 LEXINGTON AVE AND BLANDING BLVD 4 AUTO CRASH
170627430508 6-27 17:47 PHILIPS HWY AND BAYARD BLVD 4 AUTO CRASH
170627430559 6-27 17:47 8000 118TH ST 76 ASSIST OTHER AGENCY
170627430574 6-27 17:46 1600 WILDWOOD CREEK LN 13 SUSPICIOUS PERSON
170627430580 6-27 17:45 800 DETROIT ST 13 SUSPICIOUS PERSON
170627430536 6-27 17:45 J TURNER BUTLER BLVD AND SOUTHSIDE BLVD 4 AUTO CRASH
170627430543 6-27 17:44 S CHAFFEE RD AND E I10 EXPWY 4 AUTO CRASH
170627430538 6-27 17:43 DEERWOOD PARK BLVD AND SOUTHSIDE BLVD 4 AUTO CRASH
170627430554 6-27 17:43 3300 UNIVERSITY BLVD 27 MENTALLY ILL PERSON
170627430572 6-27 17:42 3100 EMERSON ST 1050 TRAFFIC STOP
170627430555 6-27 17:40 1300 SPRINKLE DR 63 DISPUTE
170627430542 6-27 17:39 N I95 EXPWY AND W UNIVERSITY BLVD 4 53 TRAFFIC CRASH PERSON INJURED
170627430567 6-27 17:38 BARNETT ST AND PRINCE ST 73 DRUG INVESTIGATION
170627430533 6-27 17:37 10100 DEERWOOD PARK BLVD 4 53 TRAFFIC CRASH PERSON INJURED
170627430560 6-27 17:36 1200 LABELLE ST 1050 TRAFFIC STOP
170627430552 6-27 17:35 5600 ENCHANTED DR 0 63 ARMED DISPUTE
170627430503 6-27 17:35 PHILIPS HWY AND OLD ST AUGUSTINE RD 4 AUTO CRASH
170627430557 6-27 17:34 SOUTHPOINT/BE 1050 TRAFFIC STOP
170627430553 6-27 17:33 PHILLIPS/JTB 96 ASSIST MOTORIST
170627430547 6-27 17:32 14200 BEACH BLVD 96 ASSIST MOTORIST
170627430541 6-27 17:31 13800 WEBB RD 76 ASSIST OTHER AGENCY
170627430328 6-27 17:31 5800 ATLANTIC BLVD 9 THEFT
170627430523 6-27 17:30 LORETTO RD AND MANDARIN RD 60 SUICIDE OR ATTEMPT
170627430534 6-27 17:30 700 S CHAFFEE RD 4 53 TRAFFIC CRASH PERSON INJURED
170627430529 6-27 17:28 BEACH BLVD AND HUFFMAN BLVD 4 AUTO CRASH
170627430502 6-27 17:28 4700 TOWN CROSSING DR 5582 HOLDING ONE FOR SHOPLIFTING
170627430531 6-27 17:28 9200 ARLINGTON EXPWY 16 ROAD OBSTRUCTION
170627430515 6-27 17:28 600 E 55TH ST 22 DOMESTIC
170627430526 6-27 17:27 3800 ENGLISH COLONY DR 10 VEHICLE THEFT
170627430518 6-27 17:27 10300 SHOPS LN 56 JUVENILE COMPLAINT
170627430524 6-27 17:27 200 RIVERSIDE AVE 22 DOMESTIC
170627430513 6-27 17:26 9000 MERRILL RD 4 AUTO CRASH
170627430521 6-27 17:26 E BEAVER ST AND N OCEAN ST 13 SUSPICIOUS PERSON
170627430516 6-27 17:25 10600 GRAYSON ST 1066 CANCEL
170627430517 6-27 17:25 8200 KONA AVE 88P ASSAULT IN PROGRESS
170627430519 6-27 17:25 N PEARL ST AND LONG BRANCH BLVD 1050 TRAFFIC STOP
170627430470 6-27 17:23 10700 DEERWOOD PARK BLVD 10 VEHICLE THEFT
170627430491 6-27 17:23 14400 BEACH BLVD 63 DISPUTE
170627430468 6-27 17:22 11200 BEACH BLVD 3 HIT AND RUN CRASH
170627430362 6-27 17:22 9500 CROSSHILL BLVD 1066 CANCEL
170627430510 6-27 17:21 CHESTNUT DR AND N PEARL ST 13 SUSPICIOUS PERSON
170627430496 6-27 17:18 6600 ARGYLE FOREST BLVD 95IDT IDENTITY THEFT TELESERVE
170627430504 6-27 17:18 W ADAMS ST AND N DAVIS ST 4 AUTO CRASH
170627430477 6-27 17:18 1500 N MAIN ST 9T THEFT (TELESERVE)
170627430485 6-27 17:17 PHILIPS HWY AND RACETRACK RD 4 AUTO CRASH
170627430493 6-27 17:16 1700 S SAN PABLO RD 1066 CANCEL
170627430501 6-27 17:16 BLANDING/I295 1050 TRAFFIC STOP
170627430495 6-27 17:15 5500 NORMANDY BLVD 63 DISPUTE
170627430497 6-27 17:14 5000 PHILIPS HWY 1050 TRAFFIC STOP
170627430494 6-27 17:13 MATTHEW UNGAR DR AND N KERNAN BLVD 16 ROAD OBSTRUCTION
170627430481 6-27 17:12 300 GREENCASTLE RD 63 DISPUTE
170627430484 6-27 17:12 S I95 EXPWY AND W CHURCH ST 96 ASSIST MOTORIST
170627430490 6-27 17:12 ARLINGTON EXPWY AND A PHILIP RANDOLPH BLVD 1050 TRAFFIC STOP
170627430421 6-27 17:10 SAN JUAN AVE AND JAMMES RD 63 DISPUTE
170627430472 6-27 17:09 1100 KENDALL TOWN BLVD 3 HIT AND RUN CRASH
170627430440 6-27 17:08 1000 DEER SPRING DR 21R BURGLARY RESIDENCE
170627430446 6-27 17:08 8300 TUBMAN CT 56 JUVENILE COMPLAINT
170627430460 6-27 17:07 800 PRUDENTIAL DR 4 AUTO CRASH
170627430419 6-27 17:06 200 MONUMENT RD 63 DISPUTE
170627430482 6-27 17:06 2600 N OLD MIDDLEBURG RD 95ID IDENTITY THEFT
170627430478 6-27 17:05 S I295 EXPWY AND J TURNER BUTLER BLVD 4 AUTO CRASH
170627430465 6-27 17:05 300 BUSCH DR 1066 CANCEL
170627430474 6-27 17:04 METTO RD AND KINKAID RD 4 53 TRAFFIC CRASH PERSON INJURED
170627430476 6-27 17:04 5000 CLEVELAND RD 63 DISPUTE
170627430475 6-27 17:03 PHILIPS EXIT SR 9B RP AND PHILIPS HWY 96 ASSIST MOTORIST
170627430463 6-27 17:03 200 COPELAND ST 37 UNVERIFIED 911 CALL
170627430397 6-27 17:02 10700 BOLYARD DR 95ID IDENTITY THEFT
170627430469 6-27 17:01 200 W UNION ST 56 JUVENILE COMPLAINT
170627430420 6-27 17:00 1800 N DAVIS ST 3 HIT AND RUN CRASH
170627430461 6-27 16:59 103RD ST AND JAMMES RD 4 AUTO CRASH
170627430451 6-27 16:57 1000 E 13TH ST 0 22 DOMESTIC DISTURBANCE W/WEAPON
170627430464 6-27 16:57 8000 ATLANTIC BLVD 13 SUSPICIOUS PERSON
170627430176 6-27 16:56 13600 AEROSPACE WAY 95ID IDENTITY THEFT
170627430401 6-27 16:53 1200 RIVERPLACE BLVD 37 UNVERIFIED 911 CALL
170627430428 6-27 16:53 5500 DAKOTA DR 63 DISPUTE
170627430448 6-27 16:52 7100 BONNEVAL RD 4 AUTO CRASH
170627430443 6-27 16:52 5900 ROCKY MOUNT DR 3T HIT AND RUN CRASH - TELESERVE
170627430414 6-27 16:51 S I95 EXPWY AND SAN MARCO BLVD 4 AUTO CRASH
170627430450 6-27 16:51 6000 YOUNGERMAN CIR 76 ASSIST OTHER AGENCY
170627430426 6-27 16:51 500 MARTIN ST 63 DISPUTE
170627430394 6-27 16:51 10100 SAN JOSE BLVD 9T THEFT (TELESERVE)
170627430449 6-27 16:51 RIVER BLVD AND GOODWIN ST 13 SUSPICIOUS PERSON
170627430445 6-27 16:50 S I95 EXPWY AND MARTIN LUTHER KING JR PKWY 3 HIT AND RUN CRASH
170627430441 6-27 16:50 3800 N MAIN ST 63 DISPUTE
170627430422 6-27 16:50 100 N BUCKMAN BRG 96 ASSIST MOTORIST
170627430329 6-27 16:49 3700 W ORLANDO CIR 14C VANDALISM CONVEYANCE
170627430444 6-27 16:49 S I95 EXPWY AND W 8TH ST 4 AUTO CRASH
170627430438 6-27 16:48 13400 BEACH BLVD 13 SUSPICIOUS PERSON
170627430413 6-27 16:48 300 MONUMENT RD 63 DISPUTE
170627430409 6-27 16:46 2000 E ADAMS ST 76 ASSIST OTHER AGENCY
170627430377 6-27 16:46 4800 KINGSMEADOW LN 9T THEFT (TELESERVE)
170627430431 6-27 16:44 MERRILL RD AND TOWNSEND BLVD 4 AUTO CRASH
170627430439 6-27 16:44 2800 HERSCHEL ST 22 DOMESTIC
170627430418 6-27 16:43 7700 NORMANDY BLVD 63 DISPUTE
170627430366 6-27 16:43 3900 CONFEDERATE POINT RD 63 DISPUTE
170627430435 6-27 16:43 BAYMEADOWS RD AND SAN JOSE BLVD 4 53 TRAFFIC CRASH PERSON INJURED
170627430434 6-27 16:43 BAYMEADOWS RD AND SAN JOSE BLVD 4 53 TRAFFIC CRASH PERSON INJURED
170627430430 6-27 16:41 500 ZOO PKWY 38 TRAFFIC ASSIGNMENT
170627430429 6-27 16:41 SAN JOSE BLVD AND BAYMEADOWS RD 4 AUTO CRASH
170627430404 6-27 16:41 W BEAVER ST AND N MC DUFF AVE 13 SUSPICIOUS PERSON
170627430427 6-27 16:41 I95 SB/I10 WB 1050 TRAFFIC STOP
170627430396 6-27 16:40 1ST AVE AND BROOM ST 13 SUSPICIOUS PERSON
170627430423 6-27 16:39 800 CASSAT AVE 4 AUTO CRASH
170627430392 6-27 16:38 SCHUMACHER AVE AND BEACH BLVD 16 ROAD OBSTRUCTION
170627430415 6-27 16:37 S I95 EXPWY AND E I10 EXPWY 4 AUTO CRASH
170627430391 6-27 16:35 2600 POST ST 9 THEFT
170627430406 6-27 16:35 4400 ROOSEVELT BLVD 22 DOMESTIC
170627430412 6-27 16:35 LEM TURNER RD AND N I95 EXPWY 4 53 TRAFFIC CRASH PERSON INJURED
170627430410 6-27 16:32 500 E ADAMS ST 73 DRUG INVESTIGATION
170627430159 6-27 16:32 4900 SUNBEAM RD 56 JUVENILE COMPLAINT
170627430338 6-27 16:32 800 PRUDENTIAL DR 76 ASSIST OTHER AGENCY
170627430383 6-27 16:32 7900 FRESCA ST 3 HIT AND RUN CRASH
170627430400 6-27 16:31 14900 W REEF DR 76 ASSIST OTHER AGENCY
170627430407 6-27 16:31 BLAIR RD AND CRYSTAL SPRINGS RD 1 IMPAIRED/DRUNK DRIVER
170627430399 6-27 16:31 4600 RIVER CITY DR 21C BURGLARY CONVEYANCE
170627430379 6-27 16:28 4800 ATLANTIC BLVD 63 DISPUTE
170627430395 6-27 16:27 100 E UNION ST 13 SUSPICIOUS PERSON
170627430350 6-27 16:26 7000 COLDWATER DR 79 OBSCENE / THREAT CALL OR LETTER
170627430376 6-27 16:26 11600 PALMETTO AVE 16 ROAD OBSTRUCTION
170627430325 6-27 16:24 10900 BURNT MILL RD 21C BURGLARY CONVEYANCE
170627430389 6-27 16:24 800 ALDERMAN RD 60 SUICIDE OR ATTEMPT
170627430351 6-27 16:24 MONCRIEF RD AND W 45TH ST 22 DOMESTIC
170627430387 6-27 16:23 3600 BLANDING BLVD 13 SUSPICIOUS PERSON
170627430386 6-27 16:22 4500 WESCONNETT BLVD 38 TRAFFIC ASSIGNMENT
170627430384 6-27 16:22 N I295 EXPWY AND ZOO PKWY 4 AUTO CRASH
170627430345 6-27 16:22 10300 SOUTHSIDE BLVD 9J THEFT JUST OCCURRED
170627430380 6-27 16:21 2800 STANWOOD AVE 1066 CANCEL
170627430371 6-27 16:21 9300 ATLANTIC BLVD 4 AUTO CRASH
170627430381 6-27 16:20 1100 PHELPS ST 1050 TRAFFIC STOP
170627430378 6-27 16:20 500 E ADAMS ST 95 FRAUD/FORGED (CHECK, ID, RX)
170627430373 6-27 16:20 6800 NORMANDY BLVD 1066 CANCEL
170627430374 6-27 16:20 1700 LINDSEY RD 4 AUTO CRASH
170627430375 6-27 16:20 N I295 EXPWY AND S ST JOHNS BLUFF RD 4 AUTO CRASH
170627430318 6-27 16:19 2600 N OLD MIDDLEBURG RD 9 THEFT
170627430352 6-27 16:19 8000 ARLINGTON EXPWY 63 DISPUTE
170627430359 6-27 16:18 7500 PATRICE CT 63 DISPUTE
170627430354 6-27 16:17 1900 CASSAT AVE 63 DISPUTE
170627430365 6-27 16:15 S I295 EXPWY AND MONUMENT RD 4 AUTO CRASH
170627430360 6-27 16:14 5200 RICKER RD 3 HIT AND RUN CRASH
170627430343 6-27 16:13 J TURNER BUTLER BLVD AND N I295 EXPWY 4 AUTO CRASH
170627430342 6-27 16:13 PECAN PARK RD AND S I95 EXPWY 4 63 CRASH INVOLVING DISPUTE
170627430331 6-27 16:13 MARLDON LN AND BATTLEGATE RD 13 SUSPICIOUS PERSON
170627430355 6-27 16:13 500 S LANE AVE 4 AUTO CRASH
170627430241 6-27 16:12 8300 DIX ELLIS TRL 80 PROSTITUTION (ONLY)
170627430357 6-27 16:12 S EDGEWOOD AVE AND W BEAVER ST 91 TRAFFIC LIGHT/RR CROSSING MALFUNCTION
170627430266 6-27 16:12 2100 BARTRAM RD 22 DOMESTIC
170627430353 6-27 16:11 1700 N MAIN ST 9 THEFT
170627430346 6-27 16:09 7500 E JOHN F KENNEDY DR 63 DISPUTE
170627430348 6-27 16:09 3400 TOWNSEND BLVD 0 13 ARMED SUSPICIOUS PERSON
170627430344 6-27 16:07 12000 HANSON CREEK DR 4 53 TRAFFIC CRASH PERSON INJURED
170627430308 6-27 16:07 800 DUNN 63 DISPUTE
170627430347 6-27 16:07 S UNIVERSITY BLVD AND HARVIN RD 4 53 TRAFFIC CRASH PERSON INJURED
170627430291 6-27 16:06 1100 RANDOLPH ST 63 DISPUTE
170627430334 6-27 16:05 5100 W 12TH ST 21B BURGLARY BUSINESS
170627430312 6-27 16:05 4200 JAMMES RD 11 ABANDONED VEHICLE
170627430303 6-27 16:04 2800 HERSCHEL ST 2 63 DISPUTE IMPAIRED/INTOXICATED
170627430322 6-27 16:04 10300 MONACO DR 0 56 ARMED JUVENILE
170627430341 6-27 16:03 9500 SANDLER RD 1050 TRAFFIC STOP
170627430333 6-27 16:03 8100 CABIN LAKE CIR 76 ASSIST OTHER AGENCY
170627430336 6-27 16:02 5400 NEW KINGS RD 38 TRAFFIC ASSIGNMENT
170627430313 6-27 16:02 9800 BAYMEADOWS RD 63 DISPUTE
170627430311 6-27 16:02 10100 SAN JOSE BLVD 9T THEFT (TELESERVE)
170627430221 6-27 16:02 4800 BIG ISLAND DR 9 THEFT
170627430293 6-27 16:02 500 E BAY ST 95IDT IDENTITY THEFT TELESERVE
170627430323 6-27 16:02 8800 CORPORATE SQUARE CT 16 ROAD OBSTRUCTION
170627430326 6-27 16:01 1400 W 15TH ST 63 DISPUTE
170627430321 6-27 16:01 7200 S OLD KINGS RD 63 DISPUTE
170627430327 6-27 16:01 7500 RICKER RD 60 SUICIDE OR ATTEMPT
170627430249 6-27 16:00 5700 TALL PINE LN 63 DISPUTE
170627430275 6-27 16:00 10900 BEACH BLVD 86T LOST PROPERTY (TELESERVE)
170627430324 6-27 16:00 7200 N EUDINE DR 76 ASSIST OTHER AGENCY
170627430315 6-27 15:59 7500 BEACH BLVD 13 SUSPICIOUS PERSON
170627430198 6-27 15:59 10900 BAYMEADOWS RD 95ID IDENTITY THEFT
170627430310 6-27 15:57 3800 N ENGLISH COLONY DR 63 DISPUTE
170627430319 6-27 15:57 E 10TH ST AND WALNUT ST 1050 TRAFFIC STOP
170627430317 6-27 15:56 EASTPORT RD AND PULASKI RD 16 ROAD OBSTRUCTION
170627430300 6-27 15:54 3100 EMERSON ST 63 DISPUTE
170627430286 6-27 15:54 11200 OLD ST AUGUSTINE RD 1066 CANCEL
170627430304 6-27 15:53 7800 NORMANDY BLVD 63 DISPUTE
170627430294 6-27 15:53 4000 HABANA AVE 4 AUTO CRASH
170627430309 6-27 15:52 S EDGEWOOD AVE AND W BEAVER ST 1050 TRAFFIC STOP
170627430302 6-27 15:50 3900 ENGLISH COLONY DR 19 ANIMAL INVESTIGATION
170627430270 6-27 15:50 12600 SAN JOSE BLVD 3 HIT AND RUN CRASH
170627430297 6-27 15:49 9300 103RD 1050 TRAFFIC STOP
170627430280 6-27 15:49 5900 ST AUGUSTINE RD 3 HIT AND RUN CRASH
170627430289 6-27 15:48 4000 POST ST 76 ASSIST OTHER AGENCY
170627430287 6-27 15:48 700 LEILA ST 37 UNVERIFIED 911 CALL
170627430278 6-27 15:47 N I95 EXPWY AND BAYMEADOWS RD 4 AUTO CRASH
170627430285 6-27 15:47 COLLINS RD AND S I295 EXPWY 12 RECKLESS DRIVER
170627430284 6-27 15:46 4200 PHILIPS HWY 1 IMPAIRED/DRUNK DRIVER
170627430281 6-27 15:46 9300 103RD 1050 TRAFFIC STOP
170627430279 6-27 15:45 300 W. BAY ST 13 SUSPICIOUS PERSON
170627430247 6-27 15:45 9000 GALLOWAY DR 63 DISPUTE
170627430276 6-27 15:44 12400 BISCAYNE BLVD 63 DISPUTE
170627430165 6-27 15:44 14800 NORMANDY BLVD 9J THEFT JUST OCCURRED
170627430260 6-27 15:44 3800 N MAIN ST 63 DISPUTE
170627430071 6-27 15:42 4700 TROUT RIVER BLVD 13 SUSPICIOUS PERSON
170627430245 6-27 15:42 4500 LEXINGTON AVE 63 DISPUTE
170627430267 6-27 15:41 S I295 EXPWY AND ATLANTIC BLVD 4 53 TRAFFIC CRASH PERSON INJURED
170627430271 6-27 15:41 E 10TH ST AND N LIBERTY ST 1050 TRAFFIC STOP
170627429975 6-27 15:39 8800 LEM TURNER RD 14B VANDALISM BUSINESS
170627430239 6-27 15:38 BRIDGES ST AND TIGER HOLE RD 16 ROAD OBSTRUCTION
170627430259 6-27 15:37 500 STOCKTON ST 63 DISPUTE
170627430263 6-27 15:37 1200 UNDERHILL DR 13 SUSPICIOUS PERSON
170627430254 6-27 15:37 CECIL COMMERCE CENTER PKWY AND OAKLEAF PLANTATION PKWY 4 AUTO CRASH
170627430262 6-27 15:36 I10 WB/CHAFFE 96 ASSIST MOTORIST
170627430246 6-27 15:35 7500 MISHKIE DR 88 ASSAULT
170627430242 6-27 15:34 N I295 EXPWY AND BEACH BLVD 4 AUTO CRASH
170627430253 6-27 15:34 9500 SANDLER 1050 TRAFFIC STOP
170627430248 6-27 15:33 3400 TOWNSEND BLVD 61 FIGHT
170627430252 6-27 15:33 9500 SANDLER 1050 TRAFFIC STOP
170627430154 6-27 15:29 3900 ROBERT C WEAVER DR 22 DOMESTIC
170627430237 6-27 15:29 ATLANTIC BLVD AND S BROOKVIEW DR 4 AUTO CRASH
170627430235 6-27 15:29 100 N BUCKMAN BRG 16 ROAD OBSTRUCTION
170627430234 6-27 15:28 N I295 EXPWY AND BEACH BLVD 3 HIT AND RUN CRASH
170627430199 6-27 15:28 CEDAR ST AND PHILIPS HWY 33 DISCHARGING OF FIREARM
170627430208 6-27 15:26 300 N LAURA ST 1066 CANCEL
170627430218 6-27 15:25 1000 N LIBERTY ST 73 DRUG INVESTIGATION
170627430232 6-27 15:25 W MONCRIEF RD AND RICHARDSON RD 22 DOMESTIC
170627430226 6-27 15:23 13200 CITY SQUARE DR 9 THEFT
170627430127 6-27 15:22 1900 BANBURY RD 63 DISPUTE
170627430177 6-27 15:21 4500 N MAIN ST 11 ABANDONED VEHICLE
170627430220 6-27 15:21 9500 SANDLER RD 12 RECKLESS DRIVER
170627430210 6-27 15:19 5700 LIBERTY STREET BLVD 13 SUSPICIOUS PERSON
170627430217 6-27 15:19 100 DAMES POINT 16 ROAD OBSTRUCTION
170627430098 6-27 15:18 7600 S OLD KINGS RD 3 HIT AND RUN CRASH
170627430196 6-27 15:18 6700 103RD ST 14CJ VANDALISM CONVEYANCE JUST OCCURRED
170627430190 6-27 15:18 5100 N PEARL ST 63 DISPUTE
170627430209 6-27 15:17 3600 S KERNAN BLVD 50 FOUND/ABANDONED PROPERTY
170627429990 6-27 15:17 300 MONUMENT RD 63 DISPUTE
170627430200 6-27 15:17 8100 BLANDING BLVD 4 AUTO CRASH
170627429964 6-27 15:16 3200 BEACH BLVD 95 FRAUD/FORGED (CHECK, ID, RX)
170627430197 6-27 15:16 100 N DAMES POINT BRG 16 ROAD OBSTRUCTION
170627430207 6-27 15:16 1100 CASSAT AVE 38 TRAFFIC ASSIGNMENT
170627430137 6-27 15:15 4100 E SOUTHPOINT DR 28 DELIVER MESSAGE
170627430155 6-27 15:13 13800 BELLA RIVA LN 95ID IDENTITY THEFT
170627430179 6-27 15:12 KING ST AND RIVERSIDE AVE 13 SUSPICIOUS PERSON
170627430131 6-27 15:11 7200 POWERS AVE 63 DISPUTE
170627430143 6-27 15:10 SOUTHSIDE BLVD AND W GATE PKWY 4 AUTO CRASH
170627430178 6-27 15:10 10200 NORMANDY BLVD 63 DISPUTE
170627430192 6-27 15:09 9500 ARLINGTON EXPWY 63 DISPUTE
170627430141 6-27 15:09 2700 TREEMONT ST 21R BURGLARY RESIDENCE
170627429937 6-27 15:09 4200 MC DANIEL DR 22 DOMESTIC
170627430181 6-27 15:09 E I10 EXPWY AND S US 301 HWY 3388 DISCHARGING FIREARM AT PERSON
170627430090 6-27 15:09 800 CASSAT AVE 22 DOMESTIC
170627430183 6-27 15:08 9500 W CARBONDALE DR 22 DOMESTIC
170627430174 6-27 15:06 800 UNIVERSITY BLVD 3 HIT AND RUN CRASH
170627430041 6-27 15:05 1900 KINGS RD 21B BURGLARY BUSINESS
170627430173 6-27 15:05 100 S BUCKMAN BRG 16 ROAD OBSTRUCTION
170627430175 6-27 15:04 100 N HOGAN 13 SUSPICIOUS PERSON
170627430172 6-27 15:04 1800 ANNISTON RD 96 ASSIST MOTORIST
170627430084 6-27 15:04 5700 LENOX AVE 79 OBSCENE / THREAT CALL OR LETTER
170627430171 6-27 15:03 3100 SEARCHWOOD DR 13 SUSPICIOUS PERSON
170627430097 6-27 15:03 600 W U S 90 HWY 13 SUSPICIOUS PERSON
170627430076 6-27 15:03 800 A PHILIP RANDOLPH BLVD 63 DISPUTE
170627430168 6-27 15:02 5100 BOWDEN RD 10J VEHICLE THEFT JUST OCCURRED
170627430164 6-27 15:01 BAYMEADOWS RD AND N I95 EXPWY 4 AUTO CRASH
170627430134 6-27 15:01 2000 N LANE AVE 4 AUTO CRASH
170627430147 6-27 15:01 100 S BUCKMAN BRG 16 ROAD OBSTRUCTION
170627430161 6-27 15:00 2000 OLD MIDDLEBURG 1050 TRAFFIC STOP
170627429932 6-27 15:00 1500 W 2ND ST 23I ROBBERY INDIVIDUAL
170627430150 6-27 15:00 ANNISTON RD AND ATLANTIC BLVD 16 ROAD OBSTRUCTION
170627430153 6-27 15:00 BLANDING BLVD AND 118TH ST 4 AUTO CRASH
170627430158 6-27 14:59 103RD/BLANDING 1050 TRAFFIC STOP
170627430156 6-27 14:58 9500 SANDLER 1050 TRAFFIC STOP
170627430152 6-27 14:57 1300 N DAVIS ST 76 ASSIST OTHER AGENCY
170627430149 6-27 14:56 N HOGAN ST AND W ADAMS ST 1050 TRAFFIC STOP
170627430148 6-27 14:55 2000 OLD MIDDLEBURG 1050 TRAFFIC STOP
170627430139 6-27 14:55 6400 ARGYLE FOREST BLVD 63 DISPUTE
170627430145 6-27 14:55 S I95 EXPWY AND EMERSON ST 16 ROAD OBSTRUCTION
170627430144 6-27 14:54 4200 PHILIPS HWY 4 53 TRAFFIC CRASH PERSON INJURED
170627430122 6-27 14:53 100 N BUCKMAN BRG 16 ROAD OBSTRUCTION
170627430119 6-27 14:52 100 GIRVIN RD 21B BURGLARY BUSINESS
170627430138 6-27 14:52 1400 MONTICELLO RD 37 UNVERIFIED 911 CALL
170627430135 6-27 14:49 2000 OLD MIDDLEBURG RD 1050 TRAFFIC STOP
170627430058 6-27 14:49 E 1ST ST AND N LIBERTY ST 73 DRUG INVESTIGATION
170627430116 6-27 14:48 8800 CAVENDER DR 63 DISPUTE
170627430103 6-27 14:48 5300 TIMUQUANA RD 63 DISPUTE
170627430132 6-27 14:47 500 SR 13 4 AUTO CRASH
170627429999 6-27 14:47 4000 CONFEDERATE POINT RD 13 SUSPICIOUS PERSON
170627430129 6-27 14:46 9400 SANDLER 1050 TRAFFIC STOP
170627430123 6-27 14:45 I295/TOWN CITY PKWAY 1050 TRAFFIC STOP
170627430118 6-27 14:43 1400 DUNNS LAKE DR 63 DISPUTE
170627430099 6-27 14:42 9400 GENNA TRACE TRL 1066 CANCEL
170627430107 6-27 14:41 7400 E BOB-O-LINK RD 8 27 MISSING MENTALLY ILL
170627430083 6-27 14:41 1600 STOCKTON ST 3 HIT AND RUN CRASH
170627430104 6-27 14:41 6300 BLANDING BLVD 4 AUTO CRASH
170627430105 6-27 14:40 3300 SNELL ST 52 ILLEGAL DUMPING
170627430102 6-27 14:40 TIMUQUANA RD AND CATOMA ST 76 ASSIST OTHER AGENCY
170627430040 6-27 14:40 700 EAVERSON ST 11 ABANDONED VEHICLE
170627430096 6-27 14:37 8300 MERRILL RD 4 AUTO CRASH
170627429903 6-27 14:37 3600 EDISON AVE 80 PROSTITUTION (ONLY)
170627430002 6-27 14:37 8800 S BANDERA CIR 1066 CANCEL
170627430094 6-27 14:36 2000 OLD MIDL 1050 TRAFFIC STOP
170627430004 6-27 14:35 300 N ARLINGTON RD 21B BURGLARY BUSINESS
170627430089 6-27 14:35 4300 CONFEDERATE POINT RD 60 SUICIDE OR ATTEMPT
170627430067 6-27 14:35 100 S BUCKMAN BRG 16 ROAD OBSTRUCTION
170627430092 6-27 14:34 9500 SANDL 1050 TRAFFIC STOP
170627429986 6-27 14:33 11400 OLD PLANK RD 21R BURGLARY RESIDENCE
170627430069 6-27 14:33 3900 MACGREGOR DR 63 DISPUTE
170627430046 6-27 14:33 E I10 EXPWY AND S I95 EXPWY 16 ROAD OBSTRUCTION
170627430061 6-27 14:33 2900 MYRA ST 13 SUSPICIOUS PERSON
170627430086 6-27 14:32 W BAYMEADOWS CIR AND WINGED FOOT LN 13 SUSPICIOUS PERSON
170627430088 6-27 14:32 4400 TIMUQUANA RD 13 SUSPICIOUS PERSON
170627430087 6-27 14:32 SS CON/ATL 1050 TRAFFIC STOP
170627430085 6-27 14:32 400 SUMTER RD 1050 TRAFFIC STOP
170627430081 6-27 14:31 2000 OLD MIDDL 1050 TRAFFIC STOP
170627429816 6-27 14:30 10400 SAN JOSE BLVD 9 THEFT
170627430073 6-27 14:29 1700 KINGS RD 57 PERSON CALLING FOR HELP
170627430024 6-27 14:29 11200 SPURLINE DR 88 ASSAULT
170627430074 6-27 14:28 9300 103RD ST 1050 TRAFFIC STOP
170627429873 6-27 14:27 3200 NORMAN E THAGARD BLVD 1066 CANCEL
170627430070 6-27 14:27 2500 SIR GALAHAD DR 21R BURGLARY RESIDENCE
170627430062 6-27 14:25 FAIRFAX ST AND MARTIN LUTHER KING JR PKWY 4 AUTO CRASH
170627430027 6-27 14:25 3700 BLANDING BLVD 95ID IDENTITY THEFT
170627430050 6-27 14:22 KINGS RD AND FAIRFAX ST 4 AUTO CRASH
170627429950 6-27 14:21 5600 ROOSEVELT BLVD 9 THEFT
170627430056 6-27 14:20 100 E UNION ST 2 IMPAIRED/INTOXICATED
170627430055 6-27 14:20 100 SHIRCLIFF WAY 13 SUSPICIOUS PERSON
170627430053 6-27 14:20 7800 IMESON RD 96 ASSIST MOTORIST
170627430051 6-27 14:19 2500 UNIVERSITY BLVD 13 SUSPICIOUS PERSON
170627430049 6-27 14:18 5800 SAN JUAN AVE 22 DOMESTIC
170627430042 6-27 14:16 200 WATER ST 3 HIT AND RUN CRASH
170627429943 6-27 14:16 3800 SOUTHSIDE BLVD 95 FRAUD/FORGED (CHECK, ID, RX)
170627430045 6-27 14:16 COLLINS RD AND WESTPORT BAY DR 4 AUTO CRASH
170627430044 6-27 14:16 9500 SAN 1050 TRAFFIC STOP
170627430043 6-27 14:15 2000 N OLD MIDDLEBURG RD 38 TRAFFIC ASSIGNMENT
170627430037 6-27 14:14 10800 KRUGERRAND LN 1066 CANCEL
170627430039 6-27 14:14 8400 BLANDING BLVD 63 DISPUTE
170627430036 6-27 14:13 7300 EL BARCO RD 60 SUICIDE OR ATTEMPT
170627430008 6-27 14:12 2800 HERSCHEL ST 63 DISPUTE
170627430033 6-27 14:12 4900 CONNORS ST 13 SUSPICIOUS PERSON
170627430034 6-27 14:11 12400 BISCAYNE BLVD 27 MENTALLY ILL PERSON
170627430028 6-27 14:11 SAN JOSE BLVD AND LORETTO RD 16 ROAD OBSTRUCTION
170627429988 6-27 14:10 2300 S JOSE CIR 13 SUSPICIOUS PERSON
170627430030 6-27 14:10 900 DUNN AVE 3 HIT AND RUN CRASH
170627430025 6-27 14:10 7800 NORMANDY BLVD 2 63 DISPUTE IMPAIRED/INTOXICATED
170627429983 6-27 14:10 6600 S BARNES RD 63 DISPUTE
170627430035 6-27 14:10 2000 OLD MIDDLE 1050 TRAFFIC STOP
170627430003 6-27 14:09 10200 SAN JOSE BLVD 4 AUTO CRASH
170627429946 6-27 14:09 2200 DEAN RD 9T THEFT (TELESERVE)
170627430005 6-27 14:07 7500 CENTURION PKWY 37 UNVERIFIED 911 CALL
170627430019 6-27 14:07 100 S FULLER WARREN BRG 19 ANIMAL INVESTIGATION
170627430018 6-27 14:07 8000 HAWTHORNE ST 76 ASSIST OTHER AGENCY
170627430021 6-27 14:05 2000 N OLD MIDDLEBURG RD 38 TRAFFIC ASSIGNMENT
170627430020 6-27 14:05 9500 SANDLER 1050 TRAFFIC STOP
170627429843 6-27 14:05 1500 N JEFFERSON ST 88 ASSAULT
170627430007 6-27 14:05 BEACH BLVD AND DEAN RD 4 AUTO CRASH
170627430016 6-27 14:04 1400 GIRVIN RD 38 TRAFFIC ASSIGNMENT
170627430012 6-27 14:03 4200 TISTON RD 52 ILLEGAL DUMPING
170627430011 6-27 14:03 9500 SAN JUAN 1050 TRAFFIC STOP
170627429992 6-27 14:03 11200 BEACH BLVD 13 SUSPICIOUS PERSON
170627429958 6-27 14:01 5200 NORWOOD AVE 63 DISPUTE
170627429997 6-27 14:00 6100 REGIMENT DR 63 DISPUTE
170627430001 6-27 14:00 2000 N OLD MIDDLEBURG RD 38 TRAFFIC ASSIGNMENT